Location: Observatoire
(46.1952°N, 5.3391°E)
Time: 02:50:17
(UTC+02:00)

CUBESAT XI-V - Visible Passes

Search period start: 24 April 2024 00:00
Search period end: 04 May 2024 00:00
Orbit: 658 x 681 km, 98.2° (Epoch: 23 April)

Date Brightness Start Highest point End Pass type
(mag) Time Alt. Az. Time Alt. Az. Time Alt. Az.
24 Apr ? 03:05:49 44° E 03:06:19 45° ENE 03:10:43 10° N visible
24 Apr ? 04:44:00 21° W 04:44:00 21° W 04:47:08 10° NW visible
25 Apr ? 02:00:26 10° E 02:02:23 13° ENE 02:04:26 10° NNE visible
25 Apr ? 03:38:37 83° S 03:38:46 88° WSW 03:43:24 10° NNW visible
25 Apr ? 05:16:48 10° W 05:16:48 10° W 05:16:53 10° W visible
26 Apr ? 02:33:12 21° E 02:34:32 24° ENE 02:38:12 10° N visible
26 Apr ? 04:11:24 42° W 04:11:24 42° W 04:15:46 10° NNW visible
27 Apr ? 03:05:58 41° E 03:06:49 46° ENE 03:11:13 10° N visible
27 Apr ? 04:44:10 21° W 04:44:10 21° W 04:47:36 10° NW visible
28 Apr ? 02:00:47 10° E 02:02:51 13° ENE 02:04:54 10° NNE visible
28 Apr ? 03:38:44 71° S 03:39:15 87° WSW 03:43:52 10° NNW visible
29 Apr ? 02:33:18 20° E 02:34:58 24° ENE 02:38:38 10° N visible
29 Apr ? 04:11:29 41° WSW 04:11:48 42° W 04:16:11 10° NNW visible
30 Apr ? 03:06:03 37° ESE 03:07:13 46° ENE 03:11:37 10° N visible
30 Apr ? 04:44:13 21° W 04:44:31 21° W 04:47:59 10° NW visible
01 May ? 02:01:09 10° E 02:03:13 13° ENE 02:05:16 10° NNE visible
01 May ? 03:38:46 60° S 03:39:37 87° W 03:44:14 10° NNW visible
02 May ? 02:33:19 18° E 02:35:18 24° ENE 02:38:57 10° N visible
02 May ? 04:11:30 39° WSW 04:12:09 41° W 04:16:30 10° NNW visible
03 May ? 03:06:02 34° ESE 03:07:31 46° ENE 03:11:54 10° N visible
03 May ? 04:44:12 20° WSW 04:44:48 21° W 04:48:16 10° NW visible
